Location: Detroit
(42.3310°N, 83.0460°W)
Time: 23:41:21
(UTC-04:00)

A-11 Canister half - Pass Details

Date: 15 February 2023
Orbit: 1526 x 1682 km, 47.3° (Epoch: 20 March)

Event Time Altitude Azimuth Distance (km) Brightness Sun altitude
Rises 11:49:25 0° 284° (WNW) 4,708 11.3 33.5°
Reaches altitude 10° 11:55:31 10° 255° (WSW) 3,750 11.1 33.8°
Maximum altitude 11:58:09 11° 238° (WSW) 3,649 11.3 34.0°
Drops below altitude 10° 12:00:49 10° 221° (SW) 3,778 11.6 34.1°
Sets 12:07:06 0° 192° (SSW) 4,799 12.5 34.3°
